Wichita, KS

3:34 AM CST on January 22, 2017 (GMT -0600)
Wichita Eisenhower National Airport

Weather History for KICT - April, 2013

Change the Weather History Date:

Tuesday, April 30, 2013

  Actual Average Record
Temperature  
Mean Temperature 73 °F 61 °F  
Max Temperature 84 °F 72 °F 91 °F (1959)
Min Temperature 62 °F 50 °F 30 °F (1907)
Degree Days  
Heating Degree Days 0 5  
Month to date heating degree days 421 290  
Since 1 July heating degree days 4358 4508  
Cooling Degree Days 8 1  
Month to date cooling degree days 16 24  
Year to date cooling degree days 16 26  
Growing Degree Days 23 (Base 50)    
Moisture  
Dew Point 57 °F    
Average Humidity 64    
Maximum Humidity 84    
Minimum Humidity 43    
Precipitation  
Precipitation 0.00 in 0.11 in 2.26 in (1951)
Month to date precipitation 3.47 2.59  
Year to date precipitation 8.60 7.29  
Snow  
Snow 0.00 in 0.00 in 0.00 in (2007)
Month to date snowfall 0.2 0.2  
Since 1 July snowfall 30.0 14.9  
Snow Depth 0.00 in    
Sea Level Pressure  
Sea Level Pressure 29.66 in    
Wind  
Wind Speed 19 mph (South)    
Max Wind Speed 33 mph    
Max Gust Speed 43 mph    
Visibility 10 miles    
Events      
T = Trace of Precipitation, MM = Missing Value Source: NWS Daily Summary

Daily Weather History Graph

Daily Weather History Graph

Search for Another Location

Airport or City:

Trip Planner

Search our weather history database for the weather conditions in past years. The results will help you decide how hot, cold, wet, or windy it might be!

Date:

Astronomy

Apr. 30, 2013 Rise Set
Actual Time 6:35 AM CDT 8:19 PM CDT
Civil Twilight 6:06 AM CDT 8:47 PM CDT
Nautical Twilight 5:33 AM CDT 9:21 PM CDT
Astronomical Twilight 4:56 AM CDT 9:57 PM CDT
Moon 12:42 AM CDT (4/30) 11:06 AM CDT (4/30)
Length of Visible Light 14h 40m
Length of Day
13h 44m
Waning Gibbous, 70% of the Moon is Illuminated
Apr 30
Waning Gibbous
May 2
Last Quarter
May 9
New
May 17
First Quarter
May 24
Full

Hourly Weather History & Observations

Time (CDT) Temp. Heat Index Dew Point Humidity Pressure Visibility Wind Dir Wind Speed Gust Speed Precip Events Conditions
12:53 AM 68.0 °F - 52.0 °F 56% 29.64 in 10.0 mi South 16.1 mph - N/A   Scattered Clouds
1:53 AM 64.9 °F - 52.0 °F 63% 29.65 in 10.0 mi South 12.7 mph - N/A   Scattered Clouds
2:53 AM 63.0 °F - 52.0 °F 67% 29.65 in 10.0 mi South 11.5 mph - N/A   Scattered Clouds
3:53 AM 62.1 °F - 54.0 °F 75% 29.65 in 10.0 mi South 11.5 mph - N/A   Scattered Clouds
4:53 AM 62.1 °F - 55.0 °F 78% 29.65 in 10.0 mi South 15.0 mph - N/A   Scattered Clouds
5:53 AM 62.1 °F - 55.9 °F 80% 29.66 in 10.0 mi South 15.0 mph - N/A   Scattered Clouds
6:53 AM 62.1 °F - 57.0 °F 84% 29.68 in 10.0 mi South 15.0 mph - N/A   Mostly Cloudy
7:53 AM 64.9 °F - 57.9 °F 78% 29.68 in 10.0 mi South 19.6 mph - N/A   Scattered Clouds
8:53 AM 69.1 °F - 59.0 °F 70% 29.67 in 10.0 mi South 23.0 mph 31.1 mph N/A   Scattered Clouds
9:53 AM 72.0 °F - 59.0 °F 64% 29.66 in 10.0 mi South 25.3 mph 32.2 mph N/A   Scattered Clouds
10:53 AM 75.0 °F - 60.1 °F 60% 29.65 in 10.0 mi South 28.8 mph 36.8 mph N/A   Mostly Cloudy
11:53 AM 79.0 °F - 60.1 °F 52% 29.65 in 10.0 mi South 26.5 mph 35.7 mph N/A   Mostly Cloudy
12:53 PM 81.0 °F 81.7 °F 61.0 °F 50% 29.64 in 10.0 mi South 25.3 mph 38.0 mph N/A   Scattered Clouds
1:53 PM 82.0 °F 82.7 °F 61.0 °F 49% 29.64 in 10.0 mi South 27.6 mph 39.1 mph N/A   Scattered Clouds
2:53 PM 82.9 °F 83.2 °F 60.1 °F 46% 29.64 in 10.0 mi South 28.8 mph 36.8 mph N/A   Scattered Clouds
3:53 PM 84.0 °F 84.0 °F 60.1 °F 44% 29.64 in 10.0 mi South 25.3 mph 33.4 mph N/A   Partly Cloudy
4:53 PM 82.9 °F 82.8 °F 59.0 °F 44% 29.64 in 10.0 mi South 21.9 mph 32.2 mph N/A   Partly Cloudy
5:53 PM 82.0 °F 82.0 °F 57.9 °F 44% 29.64 in 10.0 mi South 19.6 mph 28.8 mph N/A   Partly Cloudy
6:53 PM 80.6 °F 80.8 °F 57.2 °F 45% 29.68 in 10.0 mi SSE 16.1 mph 21.9 mph N/A   Partly Cloudy
7:53 PM 75.9 °F - 57.9 °F 54% 29.66 in 10.0 mi SSE 15.0 mph - N/A   Partly Cloudy
8:53 PM 73.4 °F - 55.4 °F 53% 29.72 in 10.0 mi SSE 12.7 mph - N/A   Partly Cloudy
9:53 PM 71.6 °F - 55.4 °F 57% 29.75 in 10.0 mi SSE 10.4 mph - N/A   Partly Cloudy
10:53 PM 70.0 °F - 54.0 °F 57% 29.73 in 10.0 mi SSE 17.3 mph - N/A   Clear
11:53 PM 69.1 °F - 54.0 °F 58% 29.74 in 10.0 mi SSE 15.0 mph 25.3 mph N/A   Clear